[[{"header":{"parameterUnit":"m.s-1","parameterCategory":1,"la1":30.2991,"la2":30.254,"lo1":-89.0895,"lo2":-89.0444,"dy":0.0017,"dx":0.0017,"nx":28,"ny":28,"refTime":"2024-08-28T09:00:00:Z","depth":0,"parameterNumber":2,"parameterNumberName":"U-component_of_WINDS"},"data":[0,0,0,0,0,0,0,0,0,0,0,0,0,0,0,0,0,0,0,0,0,0,0,0,0,0,0,0,0,0,0,0,0,0,0,0,0,0,0,0,0,0,0,0,0,0,0,0,0,0,0,0,0,0,0,0,0,0,-1.1377,-1.1376,0,-1.1301,-1.13,-1.1299,-1.1227,-1.1227,-1.1226,-1.1225,-1.1146,-1.1145,-1.1144,0,0,0,0,0,0,0,0,0,0,0,0,0,-1.146,-1.1459,-1.1377,-1.1376,-1.1375,-1.1301,-1.13,-1.1299,-1.1228,-1.1226,-1.1225,-1.1224,-1.1147,-1.1145,-1.1144,0,0,0,0,0,0,0,0,0,0,0,0,0,-1.1408,-1.1459,-1.1377,-1.133,-1.1326,-1.1301,-1.13,-1.1299,-1.1228,-1.1226,-1.1225,-1.1224,-1.1147,-1.1146,-1.1144,-1.1159,0,0,-1.1138,-1.1137,0,0,0,0,0,0,0,0,-1.1411,-1.1405,-1.1338,-1.1334,-1.1328,-1.1272,-1.1301,-1.1252,-1.1228,-1.1265,-1.1225,-1.1223,-1.1189,-1.1184,-1.1173,-1.1156,-1.1152,-1.1138,-1.1137,-1.1136,-1.1135,0,0,0,0,0,0,0,-1.1415,-1.1408,-1.1347,-1.1337,-1.1331,-1.1313,-1.1305,-1.1291,-1.1236,-1.1262,-1.1256,-1.1248,-1.1186,-1.1175,-1.117,-1.1151,-1.1138,-1.1136,-1.1135,-1.1134,-1.1144,-1.1146,0,0,0,0,0,0,-1.1426,-1.1411,-1.1349,-1.1344,-1.1367,-1.1313,-1.1303,-1.1292,-1.1236,-1.1226,-1.1249,-1.1245,-1.1178,-1.1173,-1.1167,-1.1182,-1.1136,-1.1134,-1.1133,-1.1143,-1.1145,-1.1146,0,0,0,0,0,0,-1.1428,-1.1421,-1.1352,-1.1377,-1.1366,-1.1313,-1.1301,-1.1291,-1.1279,-1.1226,-1.1216,-1.1248,-1.1177,-1.117,-1.1162,-1.1179,-1.1133,-1.1132,-1.1141,-1.1143,-1.1145,-1.1213,0,0,0,0,0,0,-1.143,-1.1422,-1.1427,-1.1377,-1.1365,-1.1348,-1.1302,-1.129,-1.1276,-1.127,-1.1222,-1.1213,-1.1176,-1.1165,-1.116,-1.1175,-1.113,-1.1139,-1.1142,-1.1145,-1.1209,-1.1217,-1.1224,0,0,0,0,0,-1.1434,-1.1449,-1.1428,-1.1421,-1.1371,-1.135,-1.1343,-1.13,-1.1278,-1.1283,-1.1249,-1.1214,-1.1178,-1.1165,-1.1159,-1.1174,-1.1138,-1.1141,-1.1144,-1.1206,-1.1216,-1.1224,0,0,0,0,0,0,-1.1501,-1.1441,-1.1417,-1.1417,-1.1389,-1.1337,-1.1342,-1.1311,-1.1289,-1.1284,-1.1231,-1.1221,-1.122,-1.1196,-1.1183,-1.1186,-1.1153,-1.1155,-1.1202,-1.1211,-1.1218,-1.1224,-1.1129,0,0,0,0,0,-1.1516,-1.1504,-1.1452,-1.1457,-1.1444,-1.1396,-1.1385,-1.1354,-1.1323,-1.1311,-1.1277,-1.1248,-1.123,-1.1219,-1.12,-1.1205,-1.1194,-1.1213,-1.122,-1.1227,-1.1229,-1.1231,-1.1239,-1.1156,-1.1156,-1.1156,0,0,-1.1547,-1.1513,-1.1508,-1.147,-1.1444,-1.1433,-1.1386,-1.1376,-1.1367,-1.1309,-1.13,-1.1274,-1.1239,-1.1238,-1.1236,-1.1218,-1.125,-1.1231,-1.1236,-1.1235,-1.1235,-1.1243,-1.125,-1.1158,-1.1158,-1.1158,0,0,-1.1597,-1.157,-1.1571,-1.1547,-1.151,-1.1478,-1.1478,-1.1432,-1.1413,-1.1403,-1.1359,-1.1348,-1.1318,-1.1295,-1.1279,-1.1323,-1.129,-1.1318,-1.1357,-1.136,-1.1367,-1.1372,-1.1388,-1.1395,-1.132,-1.132,-1.1321,0,-1.1639,-1.1621,-1.1575,-1.1568,-1.1553,-1.1501,-1.1502,-1.1481,-1.1439,-1.143,-1.1411,-1.1373,-1.1345,-1.1339,-1.135,-1.1339,-1.1338,-1.1323,-1.1369,-1.1374,-1.1379,-1.1394,-1.14,-1.1324,-1.1324,-1.1323,-1.1323,0,-1.1675,-1.1663,-1.1669,-1.1631,-1.1616,-1.1613,-1.1568,-1.1558,-1.153,-1.15,-1.1492,-1.1457,-1.143,-1.1426,-1.1397,-1.1416,-1.1406,-1.1379,-1.1345,-1.1391,-1.1404,-1.141,-1.1329,-1.1328,-1.1327,-1.1326,0,0,-1.1765,-1.1703,-1.1706,-1.1688,-1.1644,-1.1634,-1.1629,-1.1604,-1.1597,-1.157,-1.1566,-1.1542,-1.1517,-1.1499,-1.1468,-1.1471,-1.1508,-1.1443,-1.1441,-1.1457,-1.1528,-1.1549,-1.1557,-1.1487,-1.1488,-1.1488,-1.1531,0,-1.1808,-1.1796,-1.1756,-1.1757,-1.1745,-1.1696,-1.1692,-1.1665,-1.1638,-1.1625,-1.1594,-1.1579,-1.1546,-1.1535,-1.1536,-1.1504,-1.1522,-1.15,-1.1482,-1.1482,-1.1493,-1.1563,-1.1585,-1.1627,-1.1536,-1.1537,-1.1537,0,-1.1856,-1.1834,-1.1834,-1.1791,-1.1785,-1.1782,-1.1756,-1.1744,-1.1712,-1.1692,-1.1673,-1.1639,-1.1632,-1.16,-1.159,-1.1576,-1.1566,-1.155,-1.155,-1.1547,-1.1513,-1.1562,-1.1639,-1.1646,-1.1545,-1.1544,-1.1544,0,-1.1923,-1.1892,-1.1888,-1.1875,-1.1825,-1.1824,-1.1804,-1.1771,-1.1758,-1.1736,-1.1727,-1.1704,-1.1691,-1.1674,-1.1635,-1.1615,-1.1629,-1.1594,-1.1613,-1.1614,-1.1618,-1.1618,-1.1695,-1.1611,-1.1611,-1.1611,-1.1611,0,-1.1975,-1.1977,-1.1918,-1.1915,-1.1917,-1.187,-1.1873,-1.1847,-1.1819,-1.1811,-1.1767,-1.1761,-1.1709,-1.1697,-1.1666,-1.1663,-1.1657,-1.1641,-1.1633,-1.1645,-1.1647,-1.1638,-1.1634,-1.1613,-1.1613,-1.1612,-1.1612,0,-1.2049,-1.2009,-1.2002,-1.1956,-1.1944,-1.1947,-1.1908,-1.1904,-1.1875,-1.1866,-1.1861,-1.1815,-1.1798,-1.1757,-1.173,-1.1709,-1.1714,-1.1699,-1.1725,-1.172,-1.1741,-1.174,-1.1815,-1.1823,-1.1735,-1.1736,-1.1736,0,-1.2085,-1.2085,-1.204,-1.2032,-1.2013,-1.2,-1.1988,-1.1943,-1.1931,-1.1897,-1.1897,-1.1878,-1.186,-1.1836,-1.18,-1.1779,-1.1763,-1.1791,-1.176,-1.1773,-1.1764,-1.1765,-1.1765,-1.1798,-1.1799,-1.18,-1.1801,0,-1.2153,-1.2134,-1.2118,-1.2095,-1.2082,-1.2061,-1.2039,-1.2035,-1.1984,-1.1974,-1.1957,-1.1943,-1.1916,-1.1897,-1.1871,-1.185,-1.1818,-1.1811,-1.1815,-1.1827,-1.1843,-1.1835,-1.1745,-1.181,-1.1809,-1.1808,-1.1808,-1.1807,-1.221,-1.2208,-1.2177,-1.216,-1.2139,-1.2119,-1.2114,-1.2084,-1.2069,-1.2044,-1.2018,-1.2004,-1.1974,-1.1936,-1.1917,-1.1906,-1.1889,-1.1893,-1.1894,-1.1897,-1.1903,-1.1845,-1.1901,-1.19,-1.19,-1.19,-1.19,0,-1.2277,-1.2254,-1.2239,-1.221,-1.2197,-1.2168,-1.2142,-1.2133,-1.2122,-1.2096,-1.208,-1.2061,-1.2043,-1.2007,-1.1985,-1.1984,-1.1968,-1.198,-1.198,-1.1975,-1.1918,-1.1918,-1.1993,-1.1993,-1.1993,-1.1993,-1.1993,-1.1993,-1.231,-1.2307,-1.2284,-1.227,-1.2247,-1.2233,-1.2221,-1.2203,-1.2182,-1.2164,-1.2149,-1.2125,-1.2095,-1.2072,-1.2055,-1.2044,-1.2039,-1.2055,-1.2041,-1.1988,-1.1979,-1.1971,-1.197,-1.2054,-1.2055,-1.2098,-1.2099,-1.2099]},{"header":{"parameterUnit":"m.s-1","parameterCategory":1,"la1":30.2991,"la2":30.254,"lo1":-89.0895,"lo2":-89.0444,"dy":0.0017,"dx":0.0017,"nx":28,"ny":28,"refTime":"2024-08-28T09:00:00:Z","depth":0,"parameterNumber":3,"parameterNumberName":"V-component_of_WINDS"},"data":[0,0,0,0,0,0,0,0,0,0,0,0,0,0,0,0,0,0,0,0,0,0,0,0,0,0,0,0,0,0,0,0,0,0,0,0,0,0,0,0,0,0,0,0,0,0,0,0,0,0,0,0,0,0,0,0,0,0,1.9464,1.9464,0,1.9421,1.942,1.942,1.943,1.9431,1.9431,1.9432,1.9383,1.9381,1.9379,0,0,0,0,0,0,0,0,0,0,0,0,0,1.9552,1.955,1.9464,1.9464,1.9463,1.9421,1.942,1.942,1.943,1.9431,1.9432,1.9433,1.9383,1.9381,1.9378,0,0,0,0,0,0,0,0,0,0,0,0,0,1.9512,1.955,1.9464,1.9463,1.9463,1.9421,1.942,1.942,1.9429,1.9431,1.9432,1.9433,1.9384,1.9381,1.9378,1.9333,0,0,1.9368,1.9367,0,0,0,0,0,0,0,0,1.9514,1.9508,1.9464,1.9463,1.9463,1.9432,1.9433,1.9391,1.9429,1.9442,1.9432,1.9434,1.9398,1.9394,1.9383,1.9331,1.9329,1.9368,1.9366,1.9365,1.9364,0,0,0,0,0,0,0,1.9517,1.951,1.9447,1.9463,1.9462,1.9464,1.9459,1.9425,1.9413,1.9441,1.9441,1.9436,1.9398,1.9386,1.9381,1.9328,1.9368,1.9365,1.9363,1.9362,1.9239,1.9237,0,0,0,0,0,0,1.9521,1.9513,1.9448,1.9446,1.9492,1.9461,1.9456,1.9441,1.9414,1.9411,1.9435,1.9437,1.939,1.9385,1.938,1.9326,1.9365,1.9362,1.936,1.924,1.9238,1.9237,0,0,0,0,0,0,1.9523,1.9515,1.945,1.9479,1.9471,1.9458,1.9441,1.9439,1.9427,1.941,1.9407,1.9426,1.9391,1.9384,1.9345,1.9324,1.9361,1.9358,1.9242,1.9239,1.9237,1.9217,0,0,0,0,0,0,1.9525,1.9515,1.9499,1.9479,1.947,1.9417,1.9439,1.9437,1.9422,1.9424,1.94,1.9397,1.9392,1.935,1.9342,1.932,1.9355,1.9243,1.9241,1.9238,1.922,1.9215,1.9211,0,0,0,0,0,1.9528,1.9494,1.9498,1.949,1.9449,1.9416,1.9411,1.9407,1.942,1.9403,1.9392,1.9397,1.9328,1.9346,1.9337,1.9314,1.9245,1.9241,1.9238,1.9222,1.9216,1.9211,0,0,0,0,0,0,1.951,1.9491,1.9496,1.9455,1.9437,1.9418,1.9396,1.9401,1.9378,1.938,1.9375,1.9369,1.933,1.9318,1.9338,1.927,1.9288,1.9283,1.9279,1.9273,1.9268,1.9271,1.9353,0,0,0,0,0,1.9502,1.9478,1.9462,1.9427,1.9419,1.9409,1.9394,1.9393,1.9374,1.9367,1.9353,1.9333,1.9307,1.9289,1.9264,1.9219,1.9213,1.9199,1.9194,1.9191,1.9186,1.9161,1.9154,1.9226,1.9226,1.9226,0,0,1.9483,1.947,1.9455,1.9423,1.941,1.9384,1.9403,1.9374,1.9355,1.9362,1.9325,1.9314,1.9291,1.9249,1.923,1.9238,1.9165,1.9187,1.9184,1.9181,1.9157,1.915,1.9144,1.9224,1.9225,1.9225,0,0,1.9436,1.9424,1.9394,1.9381,1.9361,1.9355,1.9348,1.9328,1.9322,1.9285,1.929,1.9266,1.9221,1.9205,1.9191,1.914,1.9144,1.9132,1.9107,1.9083,1.9078,1.9073,1.9054,1.9047,1.9128,1.9128,1.9128,0,1.9415,1.9378,1.9377,1.9349,1.9335,1.9343,1.9311,1.9298,1.927,1.9259,1.927,1.9214,1.92,1.9154,1.9142,1.9131,1.9121,1.9134,1.9079,1.9074,1.9069,1.9051,1.9044,1.9126,1.9127,1.9127,1.9127,0,1.9353,1.9327,1.9305,1.928,1.9263,1.9234,1.9228,1.9211,1.9211,1.9204,1.9167,1.915,1.9122,1.9111,1.9111,1.9065,1.9071,1.9081,1.9098,1.9061,1.9044,1.9037,1.9125,1.9125,1.9125,1.9126,0,0,1.9291,1.9268,1.926,1.9249,1.9228,1.9208,1.9178,1.9153,1.9138,1.9119,1.9094,1.9056,1.9065,1.9049,1.9047,1.9027,1.8987,1.9038,1.9038,1.9029,1.8936,1.8928,1.892,1.899,1.8989,1.8988,1.8937,0,1.9242,1.9192,1.9191,1.9145,1.912,1.9128,1.9103,1.9087,1.9079,1.9057,1.9049,1.9022,1.9036,1.9027,1.9007,1.8996,1.8968,1.9,1.8965,1.8964,1.8969,1.8911,1.8903,1.8856,1.8931,1.893,1.8929,0,1.9177,1.9158,1.911,1.9094,1.9083,1.9061,1.9037,1.9017,1.8998,1.8995,1.8978,1.898,1.8949,1.8969,1.8926,1.8948,1.8934,1.8927,1.8925,1.892,1.8943,1.8904,1.8841,1.8833,1.8918,1.8919,1.892,0,1.9136,1.9099,1.9065,1.9055,1.9036,1.9019,1.901,1.8994,1.8979,1.8958,1.8948,1.8924,1.891,1.8891,1.8886,1.8901,1.8843,1.8863,1.8838,1.8838,1.8823,1.8824,1.8756,1.8816,1.8817,1.8817,1.8817,0,1.908,1.905,1.9046,1.9025,1.8992,1.8991,1.8958,1.8949,1.8935,1.8912,1.8917,1.8895,1.889,1.8867,1.8862,1.8827,1.8821,1.8816,1.8815,1.8815,1.8816,1.8805,1.8807,1.8815,1.8815,1.8816,1.8816,0,1.9028,1.9025,1.8988,1.8974,1.8969,1.8945,1.8932,1.8911,1.8906,1.8877,1.887,1.886,1.8833,1.8827,1.8794,1.8791,1.8749,1.8752,1.8756,1.8756,1.8731,1.8733,1.8652,1.8641,1.871,1.8709,1.8709,0,1.8992,1.8969,1.8953,1.8939,1.893,1.8906,1.8892,1.8891,1.8875,1.8854,1.8836,1.881,1.8789,1.8745,1.8734,1.871,1.8711,1.8685,1.8707,1.8708,1.8709,1.871,1.8708,1.868,1.8679,1.8678,1.8678,0,1.8928,1.8928,1.8908,1.8887,1.887,1.8853,1.8837,1.8824,1.8821,1.8803,1.8776,1.876,1.8728,1.8702,1.8678,1.8667,1.8671,1.8671,1.8664,1.8663,1.8666,1.8663,1.8743,1.8672,1.8673,1.8673,1.8674,1.8674,1.8882,1.8863,1.8849,1.8826,1.8814,1.8799,1.878,1.8773,1.8751,1.8726,1.8726,1.8697,1.868,1.8648,1.8636,1.8613,1.8621,1.861,1.8608,1.8605,1.8602,1.8671,1.8609,1.8609,1.8609,1.8609,1.8609,0,1.8818,1.881,1.8789,1.8768,1.875,1.8758,1.8741,1.8725,1.87,1.8684,1.8664,1.8634,1.8609,1.8598,1.8573,1.8556,1.8558,1.855,1.855,1.8548,1.8597,1.8605,1.8549,1.8549,1.8549,1.8549,1.8549,1.8549,1.8783,1.875,1.8748,1.871,1.8702,1.8674,1.8664,1.865,1.8638,1.8604,1.8585,1.8578,1.8564,1.8539,1.8516,1.8513,1.8503,1.8494,1.8492,1.8538,1.8544,1.855,1.8558,1.8492,1.8492,1.8445,1.8444,1.8444]}]]